Weather History for El Dorado, AR

Change the Weather History Date:

Monday, October 8, 2012

  Actual Average Record
Temperature  
Mean Temperature 51 °F 66 °F  
Max Temperature 59 °F 79 °F 92 °F (1931)
Min Temperature 42 °F 54 °F 34 °F (1952)
Degree Days  
Heating Degree Days 14 2  
Month to date heating degree days 43 14  
Since 1 July heating degree days 50 26  
Cooling Degree Days 0 4  
Month to date cooling degree days 9 35  
Year to date cooling degree days 2219 2062  
Moisture  
Dew Point 44 °F    
Average Humidity 79    
Maximum Humidity 100    
Minimum Humidity 57    
Precipitation  
Precipitation 0.01 in 0.17 in 3.65 in (2004)
Month to date precipitation 0.45 1.20  
Year to date precipitation 34.57 38.86  
Snow  
Snow 0.00 in - - ()
Month to date snowfall 0.0  
Since 1 July snowfall 0.0  
Since 1 September snowfall 0.0  
Snow Depth 0.00 in    
Sea Level Pressure  
Sea Level Pressure 30.23 in    
Wind  
Wind Speed 2 mph (NNE)    
Max Wind Speed 10 mph    
Max Gust Speed 15 mph    
Visibility 10 miles    
Events Rain    
T = Trace of Precipitation, MM = Missing Value Source: NWS Daily Summary

Daily Weather History Graph

Daily Weather History Graph

Search for Another Location

Airport:

Trip Planner

Search our weather history database for the weather conditions in past years. The results will help you decide how hot, cold, wet, or windy it might be!

Date:

Astronomy

Oct. 08, 2012 Rise Set
Actual Time 7:10 AM CDT 6:45 PM CDT
Civil Twilight 6:46 AM CDT 7:10 PM CDT
Nautical Twilight 6:17 AM CDT 7:39 PM CDT
Astronomical Twilight 5:48 AM CDT 8:08 PM CDT
Moon 12:10 AM CDT (10/8) 2:17 PM CDT (10/8)
Length of Visible Light 12h 24m
Length of Day
11h 35m
Last Quarter, 46% of the Moon is Illuminated
Oct 8
Last Quarter
Oct 15
New
Oct 21
First Quarter
Oct 29
Full
Nov 6
Last Quarter

Hourly Weather History & Observations

Time (CDT) Temp. Windchill Dew Point Humidity Pressure Visibility Wind Dir Wind Speed Gust Speed Precip Events Conditions
12:44 AM 44.6 °F 42.2 °F 42.8 °F 93% 30.24 in 6.0 mi North 4.6 mph - 0.02 in Rain Light Rain
12:53 AM 44.1 °F 42.5 °F 44.1 °F 100% 30.24 in 4.0 mi North 3.5 mph - 0.03 in Rain Light Rain
1:10 AM 44.6 °F 41.4 °F 44.6 °F 100% 30.24 in 6.0 mi NE 5.8 mph - 0.01 in Rain Light Rain
1:17 AM 44.6 °F 40.7 °F 42.8 °F 93% 30.24 in 9.0 mi NNE 6.9 mph - 0.01 in Rain Light Rain
1:53 AM 44.1 °F - 43.0 °F 96% 30.25 in 7.0 mi Calm Calm - 0.01 in Rain Light Rain
2:08 AM 44.6 °F 43.1 °F 42.8 °F 93% 30.24 in 10.0 mi ENE 3.5 mph - 0.00 in   Overcast
2:53 AM 44.1 °F - 43.0 °F 96% 30.22 in 10.0 mi Calm Calm - 0.01 in   Overcast
3:34 AM 44.6 °F - 42.8 °F 93% 30.22 in 10.0 mi Calm Calm - N/A   Overcast
3:53 AM 45.0 °F - 44.1 °F 97% 30.22 in 10.0 mi Calm Calm - N/A   Overcast
4:53 AM 45.0 °F 43.5 °F 44.1 °F 97% 30.22 in 10.0 mi North 3.5 mph - N/A   Overcast
5:10 AM 44.6 °F 43.1 °F 44.6 °F 100% 30.22 in 10.0 mi North 3.5 mph - N/A   Overcast
5:53 AM 45.0 °F - 44.1 °F 97% 30.22 in 10.0 mi Calm Calm - N/A   Overcast
6:53 AM 45.0 °F 43.5 °F 44.1 °F 97% 30.25 in 10.0 mi NNW 3.5 mph - N/A   Overcast
7:53 AM 45.0 °F 43.5 °F 44.1 °F 97% 30.25 in 10.0 mi North 3.5 mph - N/A   Overcast
8:05 AM 44.6 °F 41.4 °F 44.6 °F 100% 30.25 in 10.0 mi NNW 5.8 mph - N/A   Overcast
8:53 AM 46.0 °F 43.1 °F 45.0 °F 96% 30.27 in 10.0 mi North 5.8 mph - N/A   Overcast
9:06 AM 46.4 °F 45.2 °F 44.6 °F 93% 30.28 in 10.0 mi NNE 3.5 mph - N/A   Overcast
9:46 AM 50.0 °F - 46.4 °F 87% 30.28 in 10.0 mi North 3.5 mph - N/A   Mostly Cloudy
9:53 AM 51.1 °F - 46.0 °F 83% 30.28 in 10.0 mi Variable 3.5 mph - N/A   Mostly Cloudy
10:30 AM 51.8 °F - 44.6 °F 76% 30.28 in 10.0 mi NE 6.9 mph - N/A   Mostly Cloudy
10:53 AM 50.0 °F - 44.1 °F 80% 30.29 in 10.0 mi NNE 4.6 mph - N/A   Overcast
11:32 AM 51.8 °F - 44.6 °F 76% 30.27 in 10.0 mi East 6.9 mph - N/A   Scattered Clouds
11:40 AM 53.6 °F - 44.6 °F 72% 30.27 in 10.0 mi East 6.9 mph - N/A   Mostly Cloudy
11:53 AM 54.0 °F - 44.1 °F 69% 30.27 in 10.0 mi NE 6.9 mph - N/A   Scattered Clouds
12:05 PM 53.6 °F - 42.8 °F 67% 30.26 in 10.0 mi ENE 8.1 mph - N/A   Mostly Cloudy
12:53 PM 55.0 °F - 43.0 °F 64% 30.24 in 10.0 mi NNW 3.5 mph - N/A   Overcast
1:53 PM 55.9 °F - 43.0 °F 62% 30.21 in 10.0 mi East 6.9 mph - N/A   Mostly Cloudy
2:53 PM 57.0 °F - 44.1 °F 62% 30.19 in 10.0 mi NE 3.5 mph - N/A   Overcast
3:53 PM 57.0 °F - 43.0 °F 59% 30.18 in 10.0 mi NW 3.5 mph - N/A   Overcast
4:53 PM 57.0 °F - 43.0 °F 59% 30.17 in 10.0 mi Calm Calm - N/A   Overcast
5:53 PM 57.0 °F - 45.0 °F 64% 30.16 in 10.0 mi North 4.6 mph - N/A   Overcast
6:53 PM 50.0 °F - 48.2 °F 94% 30.15 in 10.0 mi Calm Calm - N/A   Clear
7:53 PM 48.0 °F - 46.0 °F 93% 30.15 in 10.0 mi Calm Calm - N/A   Clear
8:53 PM 45.0 °F - 44.1 °F 97% 30.16 in 10.0 mi Calm Calm - N/A   Clear
9:53 PM 45.0 °F - 44.1 °F 97% 30.16 in 10.0 mi Calm Calm - N/A   Clear
10:53 PM 43.0 °F - 42.1 °F 97% 30.16 in 10.0 mi Calm Calm - N/A   Clear
11:53 PM 42.1 °F - 41.0 °F 96% 30.15 in 10.0 mi Calm Calm - N/A   Clear